This demonstration page uses our WeatherBlox Daily Observations layout. Learn more.

Hourly Observations for September 24, 2020

Temp ( °F °C ) Dew Point ( °F °C ) Humidity (%) Winds ( mph kmh ) Pressure ( in mb ) Visibility ( mi km ) Precip ( " mm )
12:15 am 00:15 Clear 64 18 55 12.6 71 71 SSW 7 11 29.83 1010 10 16.0934 0 0
12:35 am 00:35 Clear 65 18.1 55 12.6 70 70 SSW 7 11 29.83 1010 10 16.0934 0 0
12:55 am 00:55 Clear 65 18.6 55 12.5 68 68 SSW 9 15 29.84 1010 10 16.0934 0 0
1:15 am 01:15 Clear 65 18.5 54 12.2 67 67 SSW 8 13 29.83 1010 10 16.0934 0 0
1:35 am 01:35 Clear 65 18.5 54 12.1 66 66 SSW 8 13 29.82 1010 10 16.0934 0 0
1:55 am 01:55 Clear 65 18.1 54 12 68 68 SW 6 9 29.81 1010 10 16.0934 0 0
2:15 am 02:15 Clear 64 17.7 54 12 69 69 SSW 6 9 29.82 1010 10 16.0934 0 0
2:35 am 02:35 Clear 63 17.4 53 11.6 69 69 SSW 3 6 29.82 1010 10 16.0934 0 0
2:55 am 02:55 Clear 63 17.2 53 11.4 69 69 SSW 7 11 29.81 1010 10 16.0934 0 0
3:15 am 03:15 Clear 61 16.3 52 11.2 72 72 SW 6 9 29.82 1010 10 16.0934 0 0
3:35 am 03:35 Clear 62 16.5 52 11.1 71 71 SSW 6 9 29.81 1009 10 16.0934 0 0
3:55 am 03:55 Clear 60 15.6 52 11 74 74 SW 6 9 29.81 1010 10 16.0934 0 0
4:15 am 04:15 Clear 59 15.1 51 10.5 74 74 Calm 29.82 1010 10 16.0934 0 0
4:35 am 04:35 Clear 60 15.3 51 10.5 73 73 Calm 29.81 1009 10 16.0934 0 0
4:55 am 04:55 Clear 56 13.5 50 10 80 80 Calm 29.82 1010 10 16.0934 0 0
5:15 am 05:15 Clear 56 13.6 51 10.4 81 81 Calm 29.83 1010 10 16.0934 0 0
5:35 am 05:35 Clear 54 12.1 50 9.9 87 87 Calm 29.84 1011 10 16.0934 0 0
5:55 am 05:55 Clear 54 12 50 10.1 88 88 NW 3 6 29.86 1011 10 16.0934 0 0
6:15 am 06:15 Clear 56 13.4 50 10.1 81 81 NNW 5 7 29.85 1011 10 16.0934 0 0
6:35 am 06:35 Clear 55 12.7 50 9.8 83 83 NW 5 7 29.85 1011 10 16.0934 0 0
6:55 am 06:55 Clear 54 12.1 49 9.6 85 85 WNW 7 11 29.85 1011 10 16.0934 0 0
7:15 am 07:15 Clear 54 12 49 9.5 85 85 NW 7 11 29.85 1011 10 16.0934 0 0
7:35 am 07:35 Sunny 53 11.8 49 9.3 85 85 NW 7 11 29.86 1011 10 16.0934 0 0
7:55 am 07:55 Sunny 54 12 49 9.5 85 85 NNW 3 6 29.89 1012 10 16.0934 0 0
8:15 am 08:15 Sunny 55 12.7 49 9.7 82 82 NNW 5 7 29.88 1012 10 16.0934 0 0
8:35 am 08:35 Sunny 56 13.6 50 10.2 80 80 NNW 6 9 29.87 1012 10 16.0934 0 0
8:55 am 08:55 Sunny 59 14.8 52 11 78 78 NNW 6 9 29.86 1011 10 16.0934 0 0
9:15 am 09:15 Sunny 61 16.2 53 11.5 74 74 N 7 11 29.86 1011 10 16.0934 0 0
9:35 am 09:35 Sunny 64 17.5 53 11.9 70 70 N 7 11 29.85 1011 7 11.26538 0 0
9:55 am 09:55 Sunny 65 18.6 54 12.1 66 66 N 9 15 29.85 1011 10 16.0934 0 0
10:15 am 10:15 Sunny 68 20 55 12.7 63 63 NNE 8 13 29.84 1010 10 16.0934 0 0
10:35 am 10:35 Sunny 71 21.6 56 13.2 59 59 NNE 9 15 29.82 1010 10 16.0934 0 0
10:55 am 10:55 Sunny 73 22.8 56 13.4 56 56 NNE 8 13 29.81 1010 10 16.0934 0 0
11:15 am 11:15 Sunny 75 23.8 56 13.6 53 53 NE 10 17 29.81 1009 10 16.0934 0 0
11:35 am 11:35 Sunny 76 24.6 56 13.2 49 49 NE 13 20 29.79 1009 10 16.0934 0 0
11:55 am 11:55 Sunny 77 25.2 55 12.9 46 46 NE 9 15 29.79 1009 10 16.0934 0 0
12:15 pm 12:15 Sunny 79 26.1 55 13 44 44 NE 9 15 29.78 1008 10 16.0934 0 0
12:35 pm 12:35 Sunny 80 26.9 55 13 42 42 NE 9 15 29.76 1008 10 16.0934 0 0
12:55 pm 12:55 Sunny 82 27.5 55 12.5 39 39 NE 8 13 29.76 1008 10 16.0934 0 0
1:15 pm 13:15 Sunny 82 28 54 12.2 38 38 ENE 9 15 29.74 1007 10 16.0934 0 0
1:35 pm 13:35 Sunny 84 28.8 54 12.4 36 36 E 6 9 29.73 1007 10 16.0934 0 0
1:55 pm 13:55 Sunny 84 29.1 53 11.5 34 34 E 6 9 29.72 1006 10 16.0934 0 0
2:15 pm 14:15 Sunny 85 29.7 53 11.8 33 33 E 6 9 29.71 1006 10 16.0934 0 0
2:35 pm 14:35 Sunny 86 29.8 52 11.3 32 32 E 3 6 29.7 1006 10 16.0934 0 0
2:55 pm 14:55 Sunny 87 30.5 53 11.7 31 31 ENE 7 11 29.68 1005 10 16.0934 0 0
3:15 pm 15:15 Sunny 87 30.4 53 11.4 31 31 Calm 29.69 1005 10 16.0934 0 0
3:35 pm 15:35 Sunny 87 30.8 52 10.9 29 29 NNE 3 6 29.68 1005 10 16.0934 0 0
3:55 pm 15:55 Sunny 87 30.8 51 10.8 29 29 Calm 29.67 1005 10 16.0934 0 0
4:15 pm 16:15 Sunny 87 30.6 49 9.6 27 27 Calm 29.68 1005 10 16.0934 0 0
4:35 pm 16:35 Sunny 88 30.9 52 11.1 29 29 Calm 29.66 1004 10 16.0934 0 0
4:55 pm 16:55 Sunny 87 30.8 51 10.7 29 29 N 5 7 29.67 1005 10 16.0934 0 0
5:15 pm 17:15 Sunny 87 30.8 50 10.2 28 28 Calm 29.66 1004 10 16.0934 0 0
5:35 pm 17:35 Sunny 87 30.5 52 11 30 30 NE 5 7 29.66 1005 10 16.0934 0 0
5:55 pm 17:55 Sunny 85 29.6 54 12 34 34 NE 5 7 29.67 1005 10 16.0934 0 0
6:15 pm 18:15 Sunny 84 28.7 55 12.6 37 37 NE 5 7 29.68 1005 10 16.0934 0 0
6:35 pm 18:35 Sunny 82 27.9 56 13.6 41 41 ENE 5 7 29.67 1005 7 11.26538 0 0
6:55 pm 18:55 Hazy 79 26.2 58 14.3 48 48 ENE 6 9 29.69 1005 5 8.0467 0 0
7:15 pm 19:15 Hazy 76 24.5 57 14.1 52 52 E 7 11 29.7 1006 5 8.0467 0 0
7:35 pm 19:35 Clear 74 23.5 57 13.9 55 55 E 8 13 29.71 1006 7 11.26538 0 0
7:55 pm 19:55 Clear 72 22.2 56 13.6 58 58 E 8 13 29.72 1006 7 11.26538 0 0
8:15 pm 20:15 Clear 74 23.4 56 13.2 53 53 E 7 11 29.7 1006 10 16.0934 0 0
8:35 pm 20:35 Clear 69 20.3 55 13 63 63 E 8 13 29.74 1007 10 16.0934 0 0
8:55 pm 20:55 Clear 67 19.6 56 13.3 67 67 E 8 13 29.74 1007 7 11.26538 0 0
9:15 pm 21:15 Clear 65 18.6 56 13.3 71 71 E 7 11 29.75 1007 7 11.26538 0 0
9:35 pm 21:35 Clear 65 18.5 56 13.1 71 71 ESE 7 11 29.75 1007 7 11.26538 0 0
9:55 pm 21:55 Clear 62 16.7 55 12.7 77 77 SE 8 13 29.77 1008 7 11.26538 0 0
10:15 pm 22:15 Clear 63 17.1 55 13 77 77 SE 8 13 29.76 1008 10 16.0934 0 0
10:35 pm 22:35 Clear 64 17.6 56 13.2 76 76 SE 7 11 29.76 1008 7 11.26538 0 0
10:55 pm 22:55 Clear 60 15.8 54 12.4 80 80 SE 5 7 29.76 1008 10 16.0934 0 0
11:15 pm 23:15 Clear 60 15.7 55 12.5 81 81 SE 3 6 29.76 1008 10 16.0934 0 0
11:35 pm 23:35 Clear 62 16.6 55 12.6 77 77 SSE 5 7 29.76 1008 10 16.0934 0 0
11:55 pm 23:55 Clear 63 17.1 55 12.9 76 76 SSE 5 7 29.76 1008 10 16.0934 0 0

Powered by AerisWeather